Location: Penton Mewsey
(51.2167°N, 1.5167°W)
Time: 07:50:55
(UTC+00:00)

ERBS - Pass Details

Date: 30 March 2020
Orbit: 409 x 426 km, 57.0° (Epoch: 02 June)

Event Time Altitude Azimuth Distance (km) Brightness Sun altitude
Rises 21:31:47 0° 289° (WNW) 2,396 7.1 -25.1°
Reaches altitude 10° 21:34:03 10° 300° (WNW) 1,531 6.0 -25.3°
Enters shadow 21:36:35 28° 345° (NNW) 832 4.2 -25.6°
